Miscellaneous Local Product
Issued by NWS North Platte, NE

Home | Current Version | Previous Version | Graphics & Text | Print | Product List | Glossary On
Versions: 1 2 3 4 5 6 7 8 9 10 11 12 13 14 15 16 17 18 19 20 21 22 23 24 25 26 27 28 29 30 31 32 33 34 35 36 37 38 39 40 41 42 43 44 45 46 47 48 49 50
000
AXUS43 KLBF 301910
MISLBF


WESTERN AND NORTH CENTRAL NEBRASKA HOURLY WEATHER ROUNDUP
NATIONAL WEATHER SERVICE NORTH PLATTE NE
100 PM CST FRI JAN 30 2015

***STATIONS NOT REPORTING VARIABLES SUCH AS SKY/WEATHER OR
PRESSURE ARE PROVIDED BY THE NEBRASKA DEPARTMENT OF
ROADS...RAWS...AND APRS NETWORKS...AND ARE NOT UNDER
NATIONAL WEATHER SERVICE QUALITY CONTROL***

...OBSERVATIONS IN AND NEAR THE EASTERN PANHANDLE OF NEBRASKA...

CITY           SKY/WX    TMP DP  RH WIND       PRES   REMARKS
PINE RIDGE     MOSUNNY   47  24  40 W10       30.14F
CHADRON        MOSUNNY   46  26  45 VRB6      30.16F
ALLIANCE       PTSUNNY   47  24  40 CALM      30.14F
SIDNEY         PTSUNNY   43  27  53 S9        30.15F
WHITECLAY        N/A     45  23  41 W6          N/A
CRESCENT LAKE    N/A     44  25  47 S6          N/A
LISCO            N/A     46  22  38 E3          N/A
LEWELLEN         N/A     46  25  44 S9          N/A
$$

...OBSERVATIONS IN NORTH CENTRAL NEBRASKA...

CITY           SKY/WX    TMP DP  RH WIND       PRES   REMARKS
VALENTINE      PTSUNNY   48  24  39 SW20G28   30.16F
THEDFORD       PTSUNNY   49  26  40 S17       30.20F
AINSWORTH      PTSUNNY   45  26  47 S18       30.18F
O`NEILL        PTSUNNY   41  28  58 S18       30.25F
ORD            PTSUNNY   39  26  59 S15       30.30F WCI  31
BROKEN BOW     PTSUNNY   44  26  49 S16G24    30.27F
BROWNLEE         N/A     50  26  38 S20         N/A
VALENTINE NWR    N/A     44  25  47 S15         N/A
SPRINGVIEW       N/A     45  29  53 MISG        N/A
HALSEY           N/A     46  24  42 S10G20      N/A
BREWSTER         N/A     48  24  39 S16         N/A
ROSE             N/A     46  28  49 S15         N/A
NEWPORT          N/A     41  26  54 S17         N/A
SARGENT          N/A     42  28  58 SW6         N/A
COMSTOCK         N/A     44  26  48 S14         N/A
CHAMBERS         N/A     42  25  51 S10         N/A
EWING            N/A     42  30  62 S14G24      N/A
$$

...OBSERVATIONS IN SOUTHWEST NEBRASKA AND FAR NORTHEAST COLORADO...

CITY           SKY/WX    TMP DP  RH WIND       PRES   REMARKS
WRAY           FAIR      52  32  46 S21G30    30.18F
IMPERIAL       PTSUNNY   47  27  45 S16G24    30.20F
OGALLALA       PTSUNNY   47  30  51 S14G22    30.18F
NORTH PLATTE   PTSUNNY   45  26  47 S16G23    30.22F
MCCOOK         CLOUDY    46  26  45 S17       30.26F
LEXINGTON      CLOUDY    44  27  51 S17       30.28F
BRADY            N/A     44  28  53 CALM        N/A
GOTHENBURG       N/A     43  25  49 S12         N/A
CALLAWAY         N/A     44  30  57 S20         N/A
$$

...NORTH PLATTE AREA...

CITY           SKY/WX    TMP DP  RH WIND       PRES   REMARKS
AIRPORT        PTSUNNY   45  26  47 S16G23    30.22F
DOWNTOWN         N/A     45  28  51 S9G17       N/A
$$

...SOME WEATHER OBSERVATIONS FROM AROUND THE REGION...

CITY           SKY/WX    TMP DP  RH WIND       PRES   REMARKS
DENVER         CLOUDY    43  26  51 W3        30.15F
LARAMIE        CLOUDY    37  26  64 NE7       30.16F WCI  32
CHEYENNE       CLOUDY    46  25  43 N9        30.14F
SCOTTSBLUFF    CLOUDY    39  27  62 W6        30.16F WCI  35
RAPID CITY     MOSUNNY   51  24  34 N12       30.15F
PIERRE         SUNNY     42  24  49 SW6       30.16F
WINNER         FAIR      52  25  35 SW16      30.16F
SIOUX FALLS    MOSUNNY   33  24  69 S16       30.31F WCI  23
OMAHA          CLOUDY    32  20  61 S10       30.46F WCI  24
GRAND ISLAND   PTSUNNY   41  26  55 S13       30.36F
KANSAS CITY    CLOUDY    36  20  52 SW6       30.49F WCI  31
WICHITA        CLOUDY    41  25  53 SE9       30.45F
HAYS           CLOUDY    43  23  45 S17       30.37F
LIBERAL        CLOUDY    43  27  52 S14       30.37F
GOODLAND       CLOUDY    48  33  56 SW25G35   30.22F
$$



USA.gov is the U.S. government's official web portal to all federal, state and local government web resources and services.